Regional Weather Roundup
Issued by NWS Midland/Odessa, TX

Home | Current Version | Previous Version | Text Only | Print | Product List | Glossary On
Versions: 1 2 3 4 5 6 7 8 9 10 11 12 13 14 15 16 17 18 19 20 21 22 23 24 25 26 27 28 29 30 31 32 33 34 35 36 37 38 39 40 41 42 43 44 45 46 47 48 49 50
000
ASUS44 KMAF 051210
RWRMAF
MIDLAND AREA WEATHER ROUNDUP
NATIONAL WEATHER SERVICE MIDLAND TX
700 AM CDT SUN JUL 05 2015

...IN SOUTHWEST TEXAS AND SOUTHEAST NEW MEXICO...

CITY           SKY/WX    TMP DP  RH WIND       PRES   REMARKS
ALPINE         PTCLDY    66  61  84 SW6       30.16R
ANDREWS        FAIR      69  66  90 SE7       30.05R
ARTESIA        CLEAR     68  63  83 SE8       30.04R
BIG SPRING     PTCLDY    74  67  78 SE13      30.05S
CARLSBAD       CLEAR     70  61  73 SE6       30.01S
DRYDEN           N/A     74  68  81 VRB6      30.00R
FORT STOCKTON  PTCLDY    73  65  75 SE10      30.01R
GUAD PASS      MOCLDY    68  60  75 S5        30.16R
HOBBS          CLEAR     64  64 100 CALM      30.07R
MARFA          PTCLDY   N/A N/A N/A NE5       30.15R
MIDLAND AIRPK  CLOUDY    75  67  76 SE8       30.04R
MIDLAND INTL   CLOUDY    74  67  78 SE12      30.03R
ODESSA         CLOUDY    73  66  78 SE10      30.04R
PECOS          CLEAR     71  64  77 E5        29.98R
PRESIDIO       FAIR      76  64  65 MISG      29.99S
SEMINOLE       PTCLDY    65  63  90 CALM      30.07R
SNYDER         MOCLDY    73  68  86 SE7       30.05R
WINK           CLEAR     73  66  78 SE9       29.99R
$$
...OTHER STATIONS IN TEXAS...

CITY           SKY/WX    TMP DP  RH WIND       PRES   REMARKS
ABILENE        PTCLDY    74  69  85 S7        30.04R
AMARILLO       CLEAR     69  60  73 S14       30.05R
AUSTIN         MOCLDY    74  73  97 SE5       30.05R
BROWNSVILLE    CLOUDY    80  77  90 SE10      30.00R
CORPUS CHRISTI MOCLDY    79  77  94 SE10      30.01R
DALLAS FTW     MOCLDY    77  73  87 S10       30.01R
DEL RIO        PTCLDY    74  68  81 E8        29.97R
EL PASO        MOCLDY    71  65  81 SE6       30.04R
HOUSTON INT    MOCLDY    78  76  93 E5        30.06R
LUBBOCK        PTCLDY    72  65  78 S12       30.05R
SAN ANGELO     MOCLDY    75  67  76 S15       30.01S
SAN ANTONIO    CLOUDY    76  72  87 S10       30.05R
WACO           PTCLDY    77  73  87 S12       30.04R
WICHITA FALLS  NOT AVBL
$$
...OTHER LOCATIONS IN NEW MEXICO...

CITY           SKY/WX    TMP DP  RH WIND       PRES   REMARKS
ALAMAGORDO     CLEAR     68  57  68 N5        30.07R
ALBUQUERQUE    MOCLDY    66  58  75 S5        30.14S
CANNON AFB     CLEAR     64  61  91 S5        30.09R
CLOVIS         CLEAR     63  57  82 SW7         N/A
HOLLOMAN AFB   CLEAR     69  58  68 E5        30.04R
ROSWELL        PTCLDY    67  59  75 S3        30.03R
RUIDOSO        MOCLDY    61  52  72 W5        30.26R
SANTA FE       PTCLDY    59  52  77 E3        30.18F
TRUTH OR CONSE MOCLDY    68  63  84 CALM      30.09S
TUCUMCARI      CLEAR     69  60  73 SW7       30.03R
$$



USA.gov is the U.S. government's official web portal to all federal, state and local government web resources and services.